Погода в Сергиевском

Россия / Республика Адыгея     44°48′12″N   40°20′45″E
темп.,
°C
ветер,
м/с
пор.,
м/с
влажн.,
%
обл.,
%
осадки,
мм/ч
давл.,
гПа
погр.,
м
11 мая, вт
вт1100:00+8юз91559100 0.0 1018982
03:00+9юз10165899 0.0 1016989
06:00+8юз101867100 0.0 10151248
09:00+10юз91864100 0.1 10141516
12:00+12юз71359100 0.0 10141904
15:00+12юз5962100 0.1 10151590
18:00+9вюв4692100 2.5 1016308
21:00+8вюв3696100 3.4 1017173
12 мая, ср
ср1200:00+8юв2394100 0.0 101667
03:00+7вюв249576 0.0 101687
06:00+6в259712 0.0 1017133
09:00+12в348216 0.0 1016555
12:00+17в346114 0.0 10151003
15:00+19в56585 0.0 10141285
18:00+17всв487485 0.0 1013357
21:00+12в4109123 0.0 1013170
13 мая, чт
чт1300:00+10вюв36920 0.0 101281
03:00+10ююв22890 0.0 101212
06:00+11ю22780 0.0 101220
09:00+19всв23660 0.0 1012312
12:00+23всв45565 0.0 1012686
15:00+24в57615 0.0 1011897
18:00+22в5107736 0.0 1011359
21:00+19вюв61381100 0.0 1011269
14 мая, пт
пт1400:00+15юв35884 0.0 101055
03:00+15ююв22695 0.0 101013
06:00+16ю126341 0.0 101011
09:00+24юв12529 0.0 1010184
12:00+27св22525 0.0 1010456
15:00+29св33510 0.0 1010670
18:00+26всв35762 0.0 1009110
21:00+20юв33830 0.0 101023
15 мая, сб
сб1500:00+18ююз33861 0.0 101026
03:00+16з410966 0.0 1012229
06:00+15юз35928 0.0 1013130
09:00+20з34744 0.0 1014397
12:00+23зсз566734 0.0 1014831
15:00+24сз346312 0.2 1014804
18:00+23з117734 0.6 1014243
21:00+18юв118743 1.1 101411